Location: *
(46.1200°N, 11.2700°E)
Time: 19:47:51
(UTC+00:00)

Cosmos 2219 Rocket - Pass Details

Date: 02 March 2021
Orbit: 826 x 848 km, 71.0° (Epoch: 17 April)

Event Time Altitude Azimuth Distance (km) Brightness Sun altitude
Rises 19:39:39 0° 205° (SSW) 3,352 5.4 -27.6°
Reaches altitude 10° 19:42:04 10° 206° (SSW) 2,425 4.6 -28.0°
Enters shadow 19:45:46 44° 208° (SSW) 1,136 2.8 -28.6°
Exits shadow 19:55:51 - 27° (NNE) 3,440 5.4 -30.2°
